Weather History for KEHR - November, 2011

Change the Weather History Date:

Saturday, November 26, 2011

  Actual Average Record
Temperature  
Mean Temperature 58 °F -  
Max Temperature 69 °F 55 °F 73 °F (1965)
Min Temperature 48 °F 39 °F 11 °F (1977)
Degree Days  
Heating Degree Days 6    
Growing Degree Days 8 (Base 50)    
Moisture  
Dew Point 45 °F    
Average Humidity 59    
Maximum Humidity 82    
Minimum Humidity 46    
Precipitation  
Precipitation 0.56 in - - ()
Sea Level Pressure  
Sea Level Pressure 29.99 in    
Wind  
Wind Speed 11 mph (South)    
Max Wind Speed 22 mph    
Max Gust Speed 33 mph    
Visibility 10 miles    
Events      
Averages and records for this station are not official NWS values.
T = Trace of Precipitation, MM = Missing Value Source: NWS Daily Summary

Daily Weather History Graph

Daily Weather History Graph

Search for Another Location

Airport or City:

Trip Planner

Search our weather history database for the weather conditions in past years. The results will help you decide how hot, cold, wet, or windy it might be!

Date:

Astronomy

Nov. 26, 2011 Rise Set
Actual Time 6:42 AM CST 4:33 PM CST
Civil Twilight 6:13 AM CST 5:02 PM CST
Nautical Twilight 5:41 AM CST 5:34 PM CST
Astronomical Twilight 5:09 AM CST 6:05 PM CST
Moon 8:11 AM CST (11/26) 6:05 PM CST (11/26)
Length of Visible Light 10h 48m
Length of Day
9h 51m
Waxing Crescent, 3% of the Moon is Illuminated
Nov 26
Waxing Crescent
Dec 2
First Quarter
Dec 10
Full
Dec 17
Last Quarter
Dec 24
New

Hourly Weather History & Observations

Time (CST) Temp. Dew Point Humidity Pressure Visibility Wind Dir Wind Speed Gust Speed Precip Events Conditions
12:35 AM 50.0 °F 35.6 °F 58% 30.10 in 10.0 mi South 9.2 mph - N/A   Clear
12:55 AM 51.8 °F 35.6 °F 54% 30.10 in 10.0 mi South 9.2 mph - N/A   Clear
1:15 AM 51.8 °F 35.6 °F 54% 30.11 in 10.0 mi South 8.1 mph - N/A   Clear
1:35 AM 50.0 °F 35.6 °F 58% 30.11 in 10.0 mi South 8.1 mph - N/A   Clear
1:55 AM 50.0 °F 35.6 °F 58% 30.11 in 10.0 mi South 6.9 mph - N/A   Scattered Clouds
2:15 AM 48.2 °F 35.6 °F 62% 30.11 in 10.0 mi South 4.6 mph - N/A   Mostly Cloudy
2:35 AM 50.0 °F 37.4 °F 62% 30.11 in 10.0 mi South 5.8 mph - N/A   Mostly Cloudy
2:55 AM 50.0 °F 37.4 °F 62% 30.10 in 10.0 mi South 5.8 mph - N/A   Overcast
3:15 AM 50.0 °F 37.4 °F 62% 30.10 in 10.0 mi South 6.9 mph - N/A   Mostly Cloudy
3:35 AM 48.2 °F 37.4 °F 66% 30.09 in 10.0 mi South 6.9 mph - N/A   Scattered Clouds
3:55 AM 48.2 °F 37.4 °F 66% 30.09 in 10.0 mi South 6.9 mph - N/A   Scattered Clouds
4:15 AM 50.0 °F 37.4 °F 62% 30.09 in 10.0 mi South 8.1 mph - N/A   Mostly Cloudy
4:35 AM 51.8 °F 39.2 °F 62% 30.09 in 10.0 mi South 8.1 mph - N/A   Scattered Clouds
4:55 AM 51.8 °F 39.2 °F 62% 30.09 in 10.0 mi South 8.1 mph - N/A   Scattered Clouds
5:15 AM 51.8 °F 39.2 °F 62% 30.09 in 10.0 mi South 9.2 mph - N/A   Mostly Cloudy
5:35 AM 51.8 °F 39.2 °F 62% 30.09 in 10.0 mi South 11.5 mph - N/A   Scattered Clouds
5:55 AM 53.6 °F 39.2 °F 58% 30.08 in 10.0 mi South 11.5 mph - N/A   Mostly Cloudy
6:15 AM 53.6 °F 39.2 °F 58% 30.07 in 10.0 mi South 13.8 mph - N/A   Partly Cloudy
6:35 AM 53.6 °F 41.0 °F 62% 30.08 in 10.0 mi South 12.7 mph - N/A   Clear
6:55 AM 53.6 °F 41.0 °F 62% 30.08 in 10.0 mi South 11.5 mph - N/A   Scattered Clouds
7:15 AM 53.6 °F 41.0 °F 62% 30.08 in 10.0 mi SSE 11.5 mph - N/A   Mostly Cloudy
7:35 AM 53.6 °F 41.0 °F 62% 30.08 in 10.0 mi South 11.5 mph - N/A   Scattered Clouds
7:55 AM 55.4 °F 42.8 °F 63% 30.08 in 10.0 mi South 11.5 mph - N/A   Partly Cloudy
8:15 AM 55.4 °F 42.8 °F 63% 30.07 in 10.0 mi South 12.7 mph - N/A   Scattered Clouds
8:35 AM 57.2 °F 42.8 °F 59% 30.07 in 10.0 mi South 16.1 mph 20.7 mph N/A   Overcast
9:15 AM 60.8 °F 44.6 °F 55% 30.06 in 10.0 mi SSW 17.3 mph 21.9 mph N/A   Mostly Cloudy
9:35 AM 60.8 °F 46.4 °F 59% 30.06 in 10.0 mi SSW 16.1 mph 24.2 mph N/A   Mostly Cloudy
9:55 AM 60.8 °F 46.4 °F 59% 30.06 in 10.0 mi SSW 13.8 mph - N/A   Overcast
10:15 AM 62.6 °F 46.4 °F 55% 30.05 in 10.0 mi SSW 16.1 mph 19.6 mph N/A   Overcast
10:35 AM 64.4 °F 46.4 °F 52% 30.04 in 10.0 mi South 13.8 mph 24.2 mph N/A   Scattered Clouds
10:55 AM 64.4 °F 48.2 °F 56% 30.02 in 10.0 mi South 17.3 mph 26.5 mph N/A   Scattered Clouds
11:15 AM 64.4 °F 48.2 °F 56% 30.01 in 10.0 mi South 16.1 mph 25.3 mph N/A   Overcast
11:35 AM 64.4 °F 48.2 °F 56% 30.00 in 10.0 mi South 18.4 mph 23.0 mph N/A   Overcast
12:15 PM 66.2 °F 48.2 °F 52% 29.98 in 10.0 mi South 21.9 mph 26.5 mph N/A   Mostly Cloudy
12:35 PM 66.2 °F 48.2 °F 52% 29.97 in 10.0 mi South 17.3 mph 26.5 mph N/A   Mostly Cloudy
12:55 PM 68.0 °F 48.2 °F 49% 29.96 in 10.0 mi South 15.0 mph - N/A   Overcast
1:15 PM 68.0 °F 48.2 °F 49% 29.95 in 10.0 mi South 15.0 mph 20.7 mph N/A   Mostly Cloudy
1:55 PM 68.0 °F 48.2 °F 49% 29.92 in 10.0 mi South 11.5 mph - N/A   Overcast
2:15 PM 69.8 °F 48.2 °F 46% 29.91 in 10.0 mi SSE 13.8 mph 20.7 mph N/A   Mostly Cloudy
2:35 PM 68.0 °F 48.2 °F 49% 29.91 in 10.0 mi South 10.4 mph - N/A   Overcast
2:55 PM 68.0 °F 48.2 °F 49% 29.91 in 10.0 mi South 13.8 mph - N/A   Overcast
3:15 PM 68.0 °F 48.2 °F 49% 29.91 in 10.0 mi South 10.4 mph - N/A   Overcast
3:35 PM 68.0 °F 48.2 °F 49% 29.91 in 10.0 mi South 15.0 mph 18.4 mph N/A   Overcast
3:55 PM 66.2 °F 48.2 °F 52% 29.89 in 10.0 mi SSE 11.5 mph - N/A   Overcast
4:15 PM 66.2 °F 48.2 °F 52% 29.89 in 10.0 mi SSE 10.4 mph - N/A   Overcast
4:35 PM 66.2 °F 48.2 °F 52% 29.89 in 10.0 mi SSE 11.5 mph - N/A   Overcast
4:55 PM 66.2 °F 48.2 °F 52% 29.88 in 10.0 mi SSE 11.5 mph - N/A   Overcast
5:15 PM 66.2 °F 48.2 °F 52% 29.88 in 10.0 mi SSE 10.4 mph - N/A   Overcast
5:35 PM 66.2 °F 48.2 °F 52% 29.88 in 10.0 mi SSE 13.8 mph 18.4 mph N/A   Overcast
5:55 PM 66.2 °F 48.2 °F 52% 29.87 in 10.0 mi SSE 13.8 mph 17.3 mph N/A   Overcast
6:15 PM 64.4 °F 46.4 °F 52% 29.87 in 10.0 mi SSE 12.7 mph - N/A   Overcast
6:35 PM 64.4 °F 46.4 °F 52% 29.86 in 10.0 mi SSE 15.0 mph 20.7 mph N/A   Overcast
6:55 PM 64.4 °F 48.2 °F 56% 29.86 in 10.0 mi SSE 13.8 mph 19.6 mph N/A   Overcast
7:15 PM 64.4 °F 46.4 °F 52% 29.86 in 10.0 mi SSE 15.0 mph 20.7 mph N/A   Overcast
7:35 PM 64.4 °F 48.2 °F 56% 29.85 in 10.0 mi SSE 13.8 mph - N/A   Overcast
8:15 PM 66.2 °F 48.2 °F 52% 29.84 in 10.0 mi South 18.4 mph 24.2 mph N/A   Overcast
8:35 PM 62.6 °F 51.8 °F 68% 29.90 in 8.0 mi West 18.4 mph 33.4 mph 0.10 in   Overcast
8:55 PM 60.8 °F 51.8 °F 72% 29.90 in 9.0 mi WSW 8.1 mph - 0.14 in   Overcast
9:15 PM 59.0 °F 51.8 °F 77% 29.91 in 5.0 mi WSW 9.2 mph - 0.07 in   Overcast
9:35 PM 59.0 °F 51.8 °F 77% 29.91 in 5.0 mi SSW 4.6 mph - 0.14 in   Overcast
10:15 PM 57.2 °F 51.8 °F 82% 29.91 in 5.0 mi SSW 9.2 mph - 0.07 in   Overcast
10:35 PM 57.2 °F 50.0 °F 77% 29.90 in 7.0 mi SSW 6.9 mph - 0.14 in   Overcast
10:55 PM 57.2 °F 50.0 °F 77% 29.90 in 8.0 mi South 6.9 mph - 0.18 in   Overcast
11:15 PM 57.2 °F 50.0 °F 77% 29.89 in 10.0 mi South 6.9 mph - 0.04 in   Overcast
11:35 PM 57.2 °F 50.0 °F 77% 29.89 in 10.0 mi South 6.9 mph - 0.07 in   Overcast
11:55 PM 57.2 °F 50.0 °F 77% 29.87 in 10.0 mi South 6.9 mph - 0.10 in   Overcast